Showing default

SPACEMOBILE-004, 61049

Orbit data source: Space-Track

SPACEMOBILE-004, 61049 is a payload satellite owned by AST & Science (US) in LEO that was launched on Thu, 12 Sep 2024 UTC via an FALCON 9 launch vehicle from the Air Force Eastern Test Range (AFETR). Payload-class satellites include a variety of spacecraft equipped with specific instruments for various scientific and technological missions. These include communications satellites like Starlink; space stations such as the ISS; scientific satellites like the Hubble; Earth observation satellites from companies like Planet Labs, Umbra, and HawkEye 360; GPS; miniature CubeSats for education and research; and military/defense satellites.

Loading next visibility...
Identifier
61049, 2024-163E
Orbit
LEO
Country
Flag of USUS
Related business
Manufacturer
AST & Science
Mission
Operational Commercial Communications
Bus & Motor
BW3, Unknown motor
Mass
1,500 kg wet, 1,500 kg dry
Launch date (UTC)
2024-09-12 (1 year ago)
Launch vehicle
FALCON 9
Launch site
Air Force Eastern Test Range (AFETR)
Object type
Payload
Rocket body
Debris
Shape & HBR
Box + 1 Plate, 6.5 m
Radar Cross Section
32.590 m², Large (>1 m²)

Expand to show TLE details & history
Last TLE update: 18 hours ago

TLE from 18 hours ago
0 SPACEMOBILE-004
1 61049U 24163E   26037.66666544  .00017630  00000-0  79294-3 0  9998
2 61049  52.9676 189.3153 0011335 123.5928 236.6150 15.21155742 77909
Epoch: 2026-02-06T15:59Z
TLE epoch observation values (Epoch: 2026-02-06T15:59:59.894Z)
Latitude
0.00002°
Longitude
172.51449°
Altitude
507.526 km
Speed
7.609 km/s
True Right ascension
12h 37m 15s
True Declination
0° 00' 00"
Sunlit
Object was in full shadow at epoch
Visualization orbit readout
Latitude
Unknown
Longitude
Unknown
Altitude
Unknown
Speed
Unknown
Apparent Right ascension
Unknown
Apparent Declination
Unknown
Sunlit
N/A
Visualization observer readout
Local Sidereal Time
12:23:10
Azimuth
Unknown
Elevation
Unknown
Doppler factor
Unknown
Orbital elements
Apogee altitude
510.439 km
Perigee altitude
494.84 km
Semi-major axis
6,880.777 km
Eccentricity
0.00113
Inclination
52.9676°
RAAN
189.3153°
Arg. of periapsis
123.5928°
True anomaly
236.50663°
Mean anomaly
236.615°
Eccentric anomaly
236.56081°
Mean motion
3.80266 °/min
Orbital period
94.67 mins
BSTAR
0.00079294
Loading maneuver chart data...
Computing Atmospheric mass density...
Loading historical data...
Loading historical data...
Loading historical data...
Loading historical data...
Loading historical data...
Loading historical data...
Loading historical data...

Documentation

Showing up to 5 results
|